Regional Weather Roundup
Issued by NWS

Home | Current Version | Previous Version | Text Only | Print | Product List | Glossary On
Versions: 1 2 3 4 5 6 7 8 9 10 11 12 13 14 15 16 17 18 19 20 21 22 23 24 25 26 27 28 29 30 31 32 33 34 35 36 37 38 39 40 41 42 43 44 45 46 47 48 49 50
000
ASUS43 KMPX 250110
RWRMN
WEATHER ROUNDUP FOR MINNESOTA
NATIONAL WEATHER SERVICE TWIN CITIES/CHANHASSEN MN
800 PM CDT WED AUG 24 2016


NOTE: "FAIR" INDICATES FEW OR NO CLOUDS BELOW 12,000 FEET WITH NO
SIGNIFICANT WEATHER AND/OR OBSTRUCTIONS TO VISIBILITY. N/A MEANS
CURRENT SKY AND/OR WEATHER CONDITIONS ARE NOT AVAILABLE.

MNZ060>063-068>070-250200-
   Twin Cities Metro

CITY           SKY/WX    TMP DP  RH WIND       PRES   REMARKS
TWIN CITIES    CLOUDY    72  56  57 W7        29.97R
ST PAUL        CLOUDY    72  56  57 W10       29.96S
CRYSTAL        CLOUDY    71  55  56 W6        29.96R
BLAINE         MOCLDY    72  59  64 W6        29.96
LAKEVILLE      PTCLDY    66  59  77 W5        29.98S
EDEN PRAIRIE   CLOUDY    71  58  63 W5        29.97R
LAKEVILLE      PTCLDY    66  59  77 W5        29.98S
SOUTH ST PAUL  MOCLDY    72  56  56 W7        29.96S
LAKE ELMO      FAIR      68  59  73 W6        29.97S
$$
MNZ001>005-007-008-013>017-022>024-027-028-250200-
   Northwest Minnesota

CITY           SKY/WX    TMP DP  RH WIND       PRES   REMARKS
BEMIDJI        MOCLDY    66  53  62 W7        29.92F
HALLOCK        CLEAR     68  52  56 W10       29.86R
ROSEAU         CLEAR     66  55  68 SW8       29.86R
WARROAD        MOCLDY    66  55  68 SW5       29.87R
THIEF RVR FALL PTCLDY    67  52  58 W8        29.91R
CROOKSTON      CLEAR     68  52  56 W8        29.91S
FOSSTON        CLEAR     64  52  63 SW7       29.93S
DETROIT LAKES  PTCLDY    68  54  60 W7        29.97S
MOORHEAD       CLEAR     70  50  49 W13       29.95S
PARK RAPIDS    CLEAR     67  54  63 W7        29.95S
MAHNOMEN       FAIR      67  52  59 W9        29.94S
$$
MNZ006-009>011-018-025>026-250200-
   North Central Minnesota

CITY           SKY/WX    TMP DP  RH WIND       PRES   REMARKS
BAUDETTE       CLOUDY    66  51  58 W6        29.87R
FLAG ISLAND    PTCLDY    70  52  52 SW5       29.83R HAZE
INTL FALLS     MOCLDY    67  53  61 W6        29.86R
WASKISH        MOCLDY    70  55  60 W13G20    29.90S
BIG FORK       MOCLDY    66  54  63 W3        29.91S
LONGVILLE      CLEAR     66  55  68 W5        29.94R
GRAND RAPIDS   MOCLDY    69  54  58 W9        29.94R
CRANE LAKE     PTCLDY    68  55  64 W3        29.88S
ORR            CLEAR     66  52  59 CALM      29.86S
COOK           CLEAR     68  55  64 W5        29.90R
WALKER         MOCLDY    65  54  66 SW5       29.93S
$$
MNZ012-019>021-037-250200-
   Northeast Minnesota

CITY           SKY/WX    TMP DP  RH WIND       PRES   REMARKS
DULUTH         PTCLDY    71  56  58 W12       29.91R
ELY            PTCLDY    68  54  60 W8        29.87R
HIBBING        CLEAR     66  53  63 W6        29.91R
EVELETH        PTCLDY    69  52  55 W9        29.91R
DULUTH HARBOR  PTCLDY    75  59  57 SW10      29.89R
TWO HARBORS    CLOUDY    73  59  60 W7        29.86R
SILVER BAY     MOCLDY    70  61  73 CALM      29.85R
GRAND MARAIS     N/A     70  60  70 W3        29.79R
G MARAIS ARPRT PTCLDY    66  52  59 W7        29.86S
$$
MNZ029>031-032-039>041-046>048-054>057-064-250200-
   West Central Minnesota

CITY           SKY/WX    TMP DP  RH WIND       PRES   REMARKS
FERGUS FALLS   CLEAR     66  55  68 W6        29.98R
WHEATON        PTCLDY    73  59  60 W5        29.99S
MORRIS         MOCLDY    68  61  77 W6        29.99R
ALEXANDRIA     PTCLDY    68  55  63 W7        30.00R
ELBOW LAKE     FAIR      65  58  77 NW7       29.98S
WADENA         CLEAR     66  55  68 W8        29.96R
GLENWOOD       CLOUDY    68  55  64 W7        30.00R
APPLETON       CLOUDY    70  57  64 SW5       29.99S
BENSON         CLOUDY    70  57  64 W3        30.00R
ORTONVILLE     CLOUDY    70  55  60 CALM      30.00R
MADISON        CLOUDY    70  59  68 W3        30.01R
WILLMAR        FAIR      70  61  73 W3        30.01S
$$
MNZ033>034-036-042>043-049>051-058-059-250200-
   Central Minnesota

CITY           SKY/WX    TMP DP  RH WIND       PRES   REMARKS
ST CLOUD       CLOUDY    68  59  73 W6        29.97S
SAUK CENTRE    FAIR      68  58  70 SW3       29.99R
PAYNESVILLE    CLOUDY    66  59  77 W5        30.00S
AITKIN         CLOUDY    70  54  56 SW3       29.94R
PINE RIVER     CLEAR     68  55  64 CALM      29.98R
BRAINERD       PTCLDY    69  55  60 W7        29.96R
STAPLES        CLEAR     66  54  63 W3        29.97R
LONG PRAIRIE   FAIR      68  54  60 SW6       30.00R
LITTLE FALLS   CLOUDY    70  54  56 W3        29.98R
LITCHFIELD     MOCLDY    72  61  68 W5        29.99F
BUFFALO        CLOUDY    69  58  67 W5        29.98F
MAPLE LAKE     CLOUDY    70  60  71 W6        29.99S
HUTCHINSON     CLEAR     68  62  82 SW3       30.00S
$$
MNZ037-044-045-052-053-250200-
   East Central Minnesota

CITY           SKY/WX    TMP DP  RH WIND       PRES   REMARKS
PRINCETON      CLOUDY    70  59  68 SW5       29.97S
MORA           CLOUDY    68  57  68 W5        29.97S
CAMBRIDGE      CLOUDY    72  57  60 CALM      29.94F
RUSH CITY      MOCLDY    68  58  70 SW3       29.95S
MOOSE LAKE     CLOUDY    68  55  64 W6        29.92R
HINCKLEY       FAIR      68  61  77 SW6       29.94S
CLOQUET        CLOUDY    70  52  52 W7        29.93R
MCGREGOR       CLOUDY    70  55  60 SW3       29.95R
$$
MNZ071>073-080-081-089-090-097-098-250200-
   Southwest Minnesota

CITY           SKY/WX    TMP DP  RH WIND       PRES   REMARKS
MONTEVIDEO     CLOUDY    70  57  64 CALM      30.02S
GRANITE FALLS  CLOUDY    70  64  83 W5        30.02S
CANBY          CLOUDY    69  58  67 NW3       30.03R
MARSHALL       CLOUDY    67  60  78 W6        30.02S
REDWOOD FALLS  CLOUDY    69  61  75 W6        30.00S
OLIVIA         CLOUDY    70  61  73 NW3       30.00S
PIPESTONE      MOCLDY    66  61  82 SW2       30.05S
WINDOM         CLOUDY    66  61  82 W6        30.03S
WORTHINGTON    CLOUDY    65  61  87 W5        30.06S
JACKSON        CLOUDY    66  59  77 W3        30.05R
TRACY          CLOUDY    68  61  78 W3        30.02F
SLAYTON        CLOUDY    66  61  82 CALM      30.05S
$$
MNZ065>067-074>077-082>085-091>093-250200-
   South Central Minnesota

CITY           SKY/WX    TMP DP  RH WIND       PRES   REMARKS
MANKATO        PTCLDY    70  61  73 W5        30.00S
NEW ULM          N/A     68  64  88 W5        30.00S
ST JAMES       PTCLDY    63  59  88 W3        30.02S
FAIRMONT       CLOUDY    68  62  81 W6        30.04R
GLENCOE        MOCLDY    68  64  85 CALM      29.98S
FARIBAULT      PTCLDY    68  61  77 W5        30.00R
OWATONNA       PTCLDY    68  63  83 SW5       30.01R
WASECA         PTCLDY    64  61  88 SW3       30.02R
ALBERT LEA     CLOUDY    70  61  73 NW5       30.01S
$$
MNZ078>079-086>088-094>096-250200-
   Southeast Minnesota

CITY           SKY/WX    TMP DP  RH WIND       PRES   REMARKS
ROCHESTER      CLOUDY    68  64  87 W6        30.00R
RED WING       PTCLDY    72  59  64 W5        29.95S
STANTON        PTCLDY    70  61  73 W3        29.97R
DODGE CENTER   MOCLDY    70  61  73 W8        30.01R
WINONA         CLOUDY    73  61  64 NW5       29.96R
AUSTIN         CLOUDY    70  57  64 NW7       30.00S
PRESTON        CLOUDY    69  61  76 NW8       30.01R
$$
ABBREVIATIONS USED IN REMARKS
   TC - TEMPERATURES IN CELSIUS
  WCI - WIND CHILL INDEX
   HX - HEAT INDEX
  VSB - VISIBILITY
$$




USA.gov is the U.S. government's official web portal to all federal, state and local government web resources and services.